GW4824 Weather Reports


time (UTC)temp
C
wind
direction
speed
KPH
gust
KPH
rain 1hr
cm
rain 24hr
cm
rain mn
cm
humidity
%
barometer
mb
20260508115359 8 117 3.2 9.7 0.00 0.00 0.00 71 1012.8
20260508114855 8 135 1.6 1.6 0.00 0.00 0.00 76 1012.5
20260508114352 7 122 0.0 0.0 0.00 0.00 0.00 74 1012.9
20260508113849 6 88 0.0 1.6 0.00 0.00 0.00 82 1012.9
20260508113347 6 132 1.6 3.2 0.00 0.00 0.00 85 1012.8
20260508112843 6 132 0.0 0.0 0.00 0.00 0.00 87 1012.5
20260508112341 6 117 0.0 0.0 0.00 0.00 0.00 88 1012.6
20260508111837 6 129 1.6 3.2 0.00 0.00 0.00 87 1012.5
20260508111334 5 120 0.0 0.0 0.00 0.00 0.00 88 1012.8
20260508110831 5 130 0.0 0.0 0.00 0.00 0.00 90 1012.8
20260508110329 5 93 0.0 0.0 0.00 0.00 0.00 90 1012.8
20260508105829 5 118 0.0 0.0 0.00 0.00 0.00 91 1012.5
20260508105325 5 102 0.0 0.0 0.00 0.00 0.00 90 1012.6
20260508104822 5 113 0.0 0.0 0.00 0.00 0.00 90 1012.5
20260508104319 5 96 0.0 0.0 0.00 0.00 0.00 90 1012.2
20260508103816 5 103 0.0 0.0 0.00 0.00 0.00 89 1012.5
20260508103313 5 97 0.0 0.0 0.00 0.00 0.00 88 1012.4
20260508102811 5 97 0.0 0.0 0.00 0.00 0.00 88 1012.3
20260508102309 5 97 0.0 0.0 0.00 0.00 0.00 89 1012.3
20260508101806 5 105 0.0 0.0 0.00 0.00 0.00 89 1012.1
20260508101303 5 116 0.0 0.0 0.00 0.00 0.00 89 1012.2
20260508100800 5 109 0.0 0.0 0.00 0.00 0.00 88 1012.1
20260508100259 5 93 0.0 0.0 0.00 0.00 0.00 89 1012.2
20260508095754 5 116 0.0 0.0 0.00 0.00 0.00 89 1012.2
20260508095252 5 92 0.0 0.0 0.00 0.00 0.00 90 1012.2
20260508094749 5 107 0.0 0.0 0.00 0.00 0.00 89 1012.4
20260508094246 5 104 0.0 0.0 0.00 0.00 0.00 89 1012.4
20260508093743 5 99 0.0 0.0 0.00 0.00 0.00 88 1012.4
20260508093240 5 112 0.0 0.0 0.00 0.00 0.00 88 1012.4
20260508092737 5 103 0.0 0.0 0.00 0.00 0.00 87 1012.4
20260508092236 5 102 0.0 0.0 0.00 0.00 0.00 88 1012.5
20260508091733 5 111 0.0 0.0 0.00 0.00 0.00 88 1012.5
20260508091230 5 117 0.0 0.0 0.00 0.00 0.00 88 1012.4
20260508090728 5 94 0.0 0.0 0.00 0.00 0.00 88 1012.5
20260508090225 5 113 0.0 0.0 0.00 0.00 0.00 87 1012.3
20260508085721 5 107 0.0 0.0 0.00 0.00 0.00 86 1012.5
20260508085218 5 96 0.0 0.0 0.00 0.00 0.00 86 1012.6
20260508084714 6 98 0.0 0.0 0.00 0.00 0.00 86 1012.5
20260508084212 6 106 0.0 0.0 0.00 0.00 0.00 86 1012.5
20260508083709 6 106 0.0 0.0 0.00 0.00 0.00 86 1012.4
20260508083207 6 111 0.0 0.0 0.00 0.00 0.00 85 1012.3
20260508082701 6 110 0.0 0.0 0.00 0.00 0.00 85 1012.4
20260508082159 6 111 0.0 0.0 0.00 0.00 0.00 86 1012.4
20260508081657 7 105 0.0 0.0 0.00 0.00 0.00 85 1012.2
20260508081153 7 119 0.0 0.0 0.00 0.00 0.00 85 1012.5
20260508080650 7 99 0.0 0.0 0.00 0.00 0.00 82 1012.5
20260508080148 7 109 0.0 0.0 0.00 0.00 0.00 82 1012.6
20260508075644 7 96 0.0 0.0 0.00 0.00 0.00 84 1012.9
20260508075142 7 93 0.0 0.0 0.00 0.00 0.00 79 1012.8
20260508074639 7 84 0.0 0.0 0.00 0.00 0.00 77 1012.8
20260508074136 7 89 0.0 0.0 0.00 0.00 0.00 78 1012.5
20260508073633 8 105 0.0 0.0 0.00 0.00 0.00 79 1012.5
20260508073131 8 105 0.0 0.0 0.00 0.00 0.00 77 1012.8
20260508072626 8 105 0.0 0.0 0.00 0.00 0.00 79 1012.8
20260508072124 8 105 0.0 0.0 0.00 0.00 0.00 77 1012.9
20260508071621 7 103 0.0 0.0 0.00 0.00 0.00 78 1013.0
20260508071120 7 94 0.0 0.0 0.00 0.00 0.00 80 1013.2
20260508070617 7 97 0.0 0.0 0.00 0.00 0.00 81 1013.2
20260508070115 7 80 0.0 0.0 0.00 0.00 0.00 79 1013.1
20260508065612 7 141 1.6 1.6 0.00 0.00 0.00 78 1013.3
20260508065110 8 148 1.6 1.6 0.00 0.00 0.00 77 1013.5
20260508064607 7 128 0.0 0.0 0.00 0.00 0.00 76 1013.5
20260508064105 7 118 0.0 0.0 0.00 0.00 0.00 78 1013.5
20260508063602 7 96 0.0 0.0 0.00 0.00 0.00 77 1013.4
20260508063100 7 140 0.0 1.6 0.00 0.00 0.00 78 1013.4
20260508062557 7 136 0.0 1.6 0.00 0.00 0.00 78 1013.4
20260508062054 7 137 1.6 1.6 0.00 0.00 0.00 79 1013.3
20260508061552 7 91 0.0 0.0 0.00 0.00 0.00 80 1013.6
20260508061048 7 84 0.0 0.0 0.00 0.00 0.00 78 1013.7
20260508060545 7 104 0.0 0.0 0.00 0.00 0.00 78 1013.8
20260508060043 7 111 0.0 0.0 0.00 0.00 0.00 76 1013.7
20260508055538 7 75 0.0 0.0 0.00 0.00 0.00 74 1013.4
20260508055035 7 91 0.0 0.0 0.00 0.00 0.00 72 1013.4
20260508054532 7 86 0.0 0.0 0.00 0.00 0.00 72 1013.3
20260508054029 7 104 0.0 0.0 0.00 0.00 0.00 72 1013.0
20260508053525 7 113 0.0 0.0 0.00 0.00 0.00 78 1013.2
20260508053024 7 103 0.0 0.0 0.00 0.00 0.00 78 1013.1
20260508052521 7 87 0.0 0.0 0.00 0.00 0.00 80 1013.0
20260508052018 7 104 0.0 0.0 0.00 0.00 0.00 72 1013.1
20260508051514 7 98 0.0 0.0 0.00 0.00 0.00 69 1013.2
20260508051009 7 75 0.0 0.0 0.00 0.00 0.00 71 1013.3
20260508050506 7 103 0.0 0.0 0.00 0.00 0.00 76 1013.0
20260508050003 7 108 0.0 0.0 0.00 0.00 0.00 75 1012.9
20260508045459 7 101 0.0 0.0 0.00 0.00 0.00 76 1013.2
20260508044957 7 108 0.0 0.0 0.00 0.00 0.00 77 1013.1
20260508044454 7 104 0.0 0.0 0.00 0.00 0.00 76 1013.2
20260508043949 7 102 0.0 0.0 0.00 0.00 0.00 73 1013.3
20260508043447 6 97 0.0 0.0 0.00 0.00 0.00 73 1013.2
20260508042943 6 101 0.0 0.0 0.00 0.00 0.00 73 1013.4
20260508042441 6 101 0.0 0.0 0.00 0.00 0.00 74 1013.4
20260508041937 6 101 0.0 0.0 0.00 0.00 0.00 76 1013.3
20260508041434 6 105 0.0 0.0 0.00 0.00 0.00 76 1013.4
20260508040931 6 108 0.0 0.0 0.00 0.00 0.00 75 1013.3
20260508040428 7 100 0.0 0.0 0.00 0.00 0.00 73 1013.3
20260508035926 7 101 0.0 0.0 0.00 0.00 0.00 74 1013.1
20260508035422 7 111 0.0 0.0 0.00 0.00 0.00 76 1013.2
20260508034919 7 90 0.0 0.0 0.00 0.00 0.00 70 1013.4
20260508034417 8 105 0.0 0.0 0.00 0.00 0.00 77 1013.6
20260508033913 8 97 0.0 0.0 0.00 0.00 0.00 75 1013.6
20260508033412 7 96 0.0 0.0 0.00 0.00 0.00 70 1013.6
20260508032909 8 97 0.0 0.0 0.00 0.00 0.00 78 1013.5
20260508032406 8 90 0.0 0.0 0.00 0.00 0.00 66 1013.4
20260508031903 7 92 0.0 0.0 0.00 0.00 0.00 66 1013.2
20260508031400 7 88 0.0 0.0 0.00 0.00 0.00 64 1013.1
20260508030855 7 97 0.0 0.0 0.00 0.00 0.00 62 1013.3
20260508030353 7 97 0.0 0.0 0.00 0.00 0.00 62 1013.2
20260508025850 7 93 0.0 0.0 0.00 0.00 0.00 62 1013.3
20260508025347 7 94 0.0 0.0 0.00 0.00 0.00 67 1013.2
20260508024843 7 84 0.0 0.0 0.00 0.00 0.00 70 1013.3
20260508024340 7 98 0.0 0.0 0.00 0.00 0.00 64 1013.3
20260508023837 7 101 0.0 0.0 0.00 0.00 0.00 65 1013.3
20260508023334 7 95 0.0 0.0 0.00 0.00 0.00 64 1013.3
20260508022831 7 103 0.0 0.0 0.00 0.00 0.00 65 1013.1
20260508022326 7 107 0.0 0.0 0.00 0.00 0.00 62 1013.5
20260508021823 7 86 0.0 0.0 0.00 0.00 0.00 61 1013.3
20260508021319 7 101 0.0 0.0 0.00 0.00 0.00 62 1013.4
20260508020816 7 101 0.0 0.0 0.00 0.00 0.00 63 1013.3
20260508020314 7 88 0.0 0.0 0.00 0.00 0.00 62 1013.2
20260508015810 7 96 0.0 0.0 0.00 0.00 0.00 62 1013.2
20260508015308 7 93 0.0 0.0 0.00 0.00 0.00 63 1013.2
20260508014804 7 67 0.0 1.6 0.00 0.00 0.00 64 1013.3
20260508014302 7 102 0.0 0.0 0.00 0.00 0.00 62 1013.2
20260508013757 7 102 0.0 0.0 0.00 0.00 0.00 62 1013.1
20260508013254 7 103 0.0 0.0 0.00 0.00 0.00 64 1013.1
20260508012751 7 103 0.0 0.0 0.00 0.00 0.00 64 1013.2
20260508012248 7 103 0.0 0.0 0.00 0.00 0.00 63 1013.2
20260508011746 7 103 0.0 0.0 0.00 0.00 0.00 64 1013.0
20260508011243 7 103 0.0 0.0 0.00 0.00 0.00 64 1013.0
20260508010740 7 103 0.0 0.0 0.00 0.00 0.00 64 1013.1
20260508010238 8 103 0.0 0.0 0.00 0.00 0.00 60 1012.9
20260508005735 8 100 0.0 0.0 0.00 0.00 0.00 59 1012.8
20260508005232 8 100 0.0 0.0 0.00 0.00 0.00 58 1013.0
20260508004727 8 104 0.0 0.0 0.00 0.00 0.00 57 1012.8
20260508004224 8 105 0.0 0.0 0.00 0.00 0.00 55 1012.8
20260508003720 9 101 0.0 0.0 0.00 0.00 0.00 57 1012.6
20260508003218 9 100 0.0 0.0 0.00 0.00 0.00 55 1012.9
20260508002714 10 94 0.0 0.0 0.00 0.00 0.00 56 1012.8
20260508002212 10 98 0.0 0.0 0.00 0.00 0.00 56 1012.5
20260508001707 10 112 0.0 0.0 0.00 0.00 0.00 56 1012.5
20260508001203 10 113 0.0 0.0 0.00 0.00 0.00 57 1012.6
20260508000659 10 113 0.0 0.0 0.00 0.00 0.00 56 1012.6
20260508000157 10 102 0.0 0.0 0.00 0.00 0.00 53 1012.4
20260507235653 10 91 0.0 0.0 0.00 0.00 0.00 53 1012.4
20260507235151 11 104 0.0 0.0 0.00 0.00 0.00 50 1012.3
20260507234648 11 111 0.0 0.0 0.00 0.00 0.00 54 1012.2
20260507234144 11 98 0.0 0.0 0.00 0.00 0.00 57 1012.3
20260507233641 11 22 1.6 1.6 0.00 0.00 0.00 50 1012.2
20260507233139 11 98 0.0 0.0 0.00 0.00 0.00 50 1012.3
20260507232635 11 109 0.0 0.0 0.00 0.00 0.00 51 1012.3
20260507232132 11 105 0.0 0.0 0.00 0.00 0.00 49 1012.3
20260507231629 11 80 0.0 0.0 0.00 0.00 0.00 49 1012.1
20260507231126 12 90 0.0 0.0 0.00 0.00 0.00 51 1012.4
20260507230622 12 258 3.2 3.2 0.00 0.00 0.00 49 1012.3
20260507230119 12 121 1.6 1.6 0.00 0.00 0.00 45 1012.5
20260507225614 12 103 1.6 1.6 0.00 0.00 0.00 54 1012.3
20260507225111 12 297 1.6 3.2 0.00 0.00 0.00 48 1012.3
20260507224606 12 84 1.6 3.2 0.00 0.00 0.00 45 1012.4
20260507224103 12 0 1.6 1.6 0.00 0.00 0.00 45 1012.2
20260507223559 12 329 3.2 3.2 0.00 0.00 0.00 47 1012.6
20260507223056 12 115 0.0 1.6 0.00 0.00 0.00 46 1012.5
20260507222554 12 91 1.6 1.6 0.00 0.00 0.00 44 1012.5
20260507222050 12 136 1.6 1.6 0.00 0.00 0.00 44 1012.6
20260507221547 12 177 3.2 3.2 0.00 0.00 0.00 43 1012.6
20260507221044 13 213 3.2 4.8 0.00 0.00 0.00 41 1012.4
20260507220540 13 111 1.6 1.6 0.00 0.00 0.00 44 1012.6
20260507220038 12 91 3.2 4.8 0.00 0.00 0.00 43 1012.4
20260507215534 13 255 3.2 4.8 0.00 0.00 0.00 40 1012.2
20260507215032 13 94 1.6 1.6 0.00 0.00 0.00 42 1012.3
20260507214529 13 23 1.6 1.6 0.00 0.00 0.00 48 1012.3
20260507214025 12 56 1.6 1.6 0.00 0.00 0.00 42 1012.3
20260507213521 12 308 4.8 6.4 0.00 0.00 0.00 43 1012.1
20260507213018 13 290 3.2 4.8 0.00 0.00 0.00 43 1012.3
20260507212514 13 283 4.8 4.8 0.00 0.00 0.00 45 1012.2
20260507212011 13 217 4.8 4.8 0.00 0.00 0.00 41 1012.1
20260507211508 13 69 6.4 9.7 0.00 0.00 0.00 43 1012.1
20260507211004 12 96 1.6 1.6 0.00 0.00 0.00 48 1012.0
20260507210501 13 156 1.6 3.2 0.00 0.00 0.00 43 1012.0
20260507205958 12 251 3.2 4.8 0.00 0.00 0.00 45 1012.1
20260507205455 12 147 1.6 1.6 0.00 0.00 0.00 53 1012.1
20260507204951 13 204 1.6 3.2 0.00 0.00 0.00 45 1012.1
20260507204448 13 77 4.8 6.4 0.00 0.00 0.00 44 1012.1
20260507203945 15 266 3.2 3.2 0.00 0.00 0.00 42 1012.1
20260507203443 15 119 3.2 4.8 0.00 0.00 0.00 40 1011.8
20260507202939 14 272 4.8 9.7 0.00 0.00 0.00 43 1012.2
20260507202436 14 324 3.2 4.8 0.00 0.00 0.00 39 1012.2
20260507201932 14 190 1.6 1.6 0.00 0.00 0.00 42 1012.1
20260507201432 14 251 4.8 6.4 0.00 0.00 0.00 43 1012.3
20260507200929 14 58 3.2 3.2 0.00 0.00 0.00 42 1012.0
20260507200425 13 293 3.2 4.8 0.00 0.00 0.00 45 1012.1
20260507195921 14 334 3.2 6.4 0.00 0.00 0.00 43 1012.0
20260507195419 15 298 3.2 4.8 0.00 0.00 0.00 44 1012.2
20260507194916 13 92 0.0 1.6 0.00 0.00 0.00 44 1012.3
20260507194412 14 29 3.2 3.2 0.00 0.00 0.00 46 1012.2
20260507193909 14 94 1.6 3.2 0.00 0.00 0.00 44 1012.2
20260507193406 15 333 4.8 6.4 0.00 0.00 0.00 48 1012.0
20260507192902 15 63 3.2 3.2 0.00 0.00 0.00 45 1012.3
20260507192358 14 176 4.8 6.4 0.00 0.00 0.00 47 1012.2
20260507191855 13 299 3.2 3.2 0.00 0.00 0.00 48 1012.3
20260507191351 14 123 3.2 3.2 0.00 0.00 0.00 48 1012.4
20260507190848 13 71 1.6 1.6 0.00 0.00 0.00 52 1012.3
20260507190346 14 89 1.6 3.2 0.00 0.00 0.00 47 1012.4
20260507185845 14 346 4.8 6.4 0.00 0.00 0.00 50 1012.2
20260507185342 14 43 4.8 6.4 0.00 0.00 0.00 49 1012.4
20260507184839 13 146 3.2 3.2 0.00 0.00 0.00 47 1012.4
20260507184337 13 293 3.2 3.2 0.00 0.00 0.00 50 1012.4
20260507183833 14 177 1.6 3.2 0.00 0.00 0.00 47 1012.5
20260507183330 13 205 3.2 3.2 0.00 0.00 0.00 50 1012.4
20260507182828 13 269 3.2 4.8 0.00 0.00 0.00 48 1012.5
20260507182323 13 132 1.6 1.6 0.00 0.00 0.00 46 1012.3
20260507181820 13 127 0.0 0.0 0.00 0.00 0.00 53 1012.4
20260507181316 13 199 1.6 1.6 0.00 0.00 0.00 49 1012.4
20260507180813 14 186 0.0 1.6 0.00 0.00 0.00 46 1012.4
20260507180310 14 194 1.6 1.6 0.00 0.00 0.00 49 1012.4
20260507175805 14 144 1.6 1.6 0.00 0.00 0.00 47 1012.3
20260507175306 13 242 3.2 6.4 0.00 0.00 0.00 47 1012.5
20260507174759 13 256 3.2 3.2 0.00 0.00 0.00 53 1012.5
20260507174257 13 82 0.0 0.0 0.00 0.00 0.00 46 1012.8
20260507173755 13 64 4.8 4.8 0.00 0.00 0.00 47 1012.8
20260507173252 13 166 3.2 4.8 0.00 0.00 0.00 47 1013.1
20260507172748 14 294 3.2 4.8 0.00 0.00 0.00 50 1012.8
20260507172245 13 343 3.2 6.4 0.00 0.00 0.00 47 1012.9
20260507171740 13 123 3.2 3.2 0.00 0.00 0.00 50 1012.9
20260507171238 13 195 3.2 4.8 0.00 0.00 0.00 53 1012.8
20260507170735 13 197 3.2 4.8 0.00 0.00 0.00 47 1012.9
20260507170231 13 181 1.6 3.2 0.00 0.00 0.00 48 1012.9
20260507165727 13 135 1.6 3.2 0.00 0.00 0.00 46 1012.8
20260507165223 13 310 1.6 1.6 0.00 0.00 0.00 47 1012.9
20260507164719 13 244 3.2 4.8 0.00 0.00 0.00 47 1013.0
20260507164217 13 185 4.8 6.4 0.00 0.00 0.00 46 1013.0
20260507163714 13 288 3.2 3.2 0.00 0.00 0.00 47 1013.0
20260507163212 13 193 3.2 4.8 0.00 0.00 0.00 47 1013.1
20260507162707 13 146 1.6 1.6 0.00 0.00 0.00 50 1012.9
20260507162203 12 165 1.6 1.6 0.00 0.00 0.00 58 1013.0
20260507161700 12 272 1.6 3.2 0.00 0.00 0.00 45 1013.0
20260507161156 13 137 1.6 3.2 0.00 0.00 0.00 55 1013.0
20260507160653 14 102 3.2 3.2 0.00 0.00 0.00 46 1012.9
20260507160150 13 41 3.2 3.2 0.00 0.00 0.00 47 1012.9
20260507155645 12 122 3.2 4.8 0.00 0.00 0.00 48 1012.8
20260507155142 13 252 3.2 3.2 0.00 0.00 0.00 44 1013.0
20260507154638 13 169 1.6 3.2 0.00 0.00 0.00 46 1012.9
20260507154136 12 49 1.6 3.2 0.00 0.00 0.00 47 1013.0
20260507153632 12 166 1.6 1.6 0.00 0.00 0.00 52 1012.8
20260507153129 12 132 1.6 3.2 0.00 0.00 0.00 50 1012.9
20260507152625 12 197 3.2 4.8 0.00 0.00 0.00 49 1012.9
20260507152121 12 246 1.6 3.2 0.00 0.00 0.00 56 1012.9
20260507151617 12 166 1.6 3.2 0.00 0.00 0.00 56 1012.9
20260507151115 12 114 1.6 3.2 0.00 0.00 0.00 54 1013.0
20260507150612 12 205 3.2 3.2 0.00 0.00 0.00 55 1012.6
20260507150108 11 112 3.2 3.2 0.00 0.00 0.00 54 1012.8
20260507145604 12 336 3.2 3.2 0.00 0.00 0.00 53 1013.0
20260507145102 12 90 1.6 1.6 0.00 0.00 0.00 57 1013.0
20260507144557 12 301 3.2 4.8 0.00 0.00 0.00 53 1013.2
20260507144056 11 96 1.6 1.6 0.00 0.00 0.00 55 1013.0
20260507143547 11 249 1.6 3.2 0.00 0.00 0.00 58 1013.2
20260507143045 12 106 0.0 1.6 0.00 0.00 0.00 63 1013.1
20260507142544 11 45 1.6 1.6 0.00 0.00 0.00 56 1012.9
20260507142042 11 176 1.6 3.2 0.00 0.00 0.00 60 1013.1
20260507141538 10 87 1.6 1.6 0.00 0.00 0.00 60 1013.3
20260507141035 10 121 1.6 3.2 0.00 0.00 0.00 59 1013.2
20260507140531 10 96 1.6 1.6 0.00 0.00 0.00 63 1013.2
20260507140029 10 104 3.2 3.2 0.00 0.00 0.00 60 1013.3
20260507135525 10 106 0.0 0.0 0.00 0.00 0.00 66 1013.1
20260507135023 10 132 0.0 1.6 0.00 0.00 0.00 68 1013.4
20260507134519 10 307 1.6 3.2 0.00 0.00 0.00 65 1013.5
20260507134015 10 43 1.6 1.6 0.00 0.00 0.00 66 1013.4
20260507133511 10 284 1.6 1.6 0.00 0.00 0.00 68 1013.3
20260507133010 10 101 0.0 1.6 0.00 0.00 0.00 72 1013.4
20260507132506 9 257 3.2 3.2 0.00 0.00 0.00 68 1013.5
20260507132002 8 49 0.0 1.6 0.00 0.00 0.00 72 1013.5
20260507131459 8 142 1.6 1.6 0.00 0.00 0.00 71 1013.4
20260507130956 8 127 0.0 1.6 0.00 0.00 0.00 73 1013.4
20260507130453 8 114 1.6 1.6 0.00 0.00 0.00 71 1013.4
20260507125952 8 141 1.6 1.6 0.00 0.00 0.00 72 1013.6
20260507125450 8 125 1.6 1.6 0.00 0.00 0.00 73 1013.5
20260507124947 8 99 0.0 0.0 0.00 0.00 0.00 72 1013.4
20260507124443 7 105 0.0 0.0 0.00 0.00 0.00 78 1013.4
20260507123941 7 122 1.6 1.6 0.00 0.00 0.00 78 1013.5
20260507123438 7 219 1.6 3.2 0.00 0.00 0.00 77 1013.5
20260507122935 7 258 1.6 3.2 0.00 0.00 0.00 79 1013.2
20260507122430 7 128 1.6 1.6 0.00 0.00 0.00 78 1013.3
20260507121926 6 114 0.0 0.0 0.00 0.00 0.00 81 1013.2
20260507121422 6 110 0.0 0.0 0.00 0.00 0.00 82 1013.3
20260507120919 6 158 1.6 1.6 0.00 0.00 0.00 83 1013.3
20260507120415 6 146 1.6 1.6 0.00 0.00 0.00 84 1013.2
20260507115911 6 105 0.0 1.6 0.00 0.00 0.00 84 1013.1